Terug naar catalogus

STARLINK-30812

ActiefCommunicatieVLEO
NORAD 58168·PAYLOAD·🇺🇸 United States

Gelanceerd Oct 29, 2023 vanaf Vandenberg Space Force Base

Loading…

Volgende Passages (komende 24 uur)

TLE

VersSource: CelesTrak SupGP

Epoch: Sep 15, 2026, 01:44 UTC

1 58168C 23166U   26258.07270833 -.00025201  00000+0 -74515-3 0  2583
2 58168  53.1597  58.8397 0001240  86.3963 157.4457 15.34378261    16

Volg STARLINK-30812 in realtime met AllMySat

Download on the App Store